Terminal Aerodrome Forecast
Issued by NWS Boston, MA

Home | Current Version | Previous Version | Text Only | Print | Product List | Glossary On
Versions: 1 2 3 4 5 6 7 8 9 10 11 12 13 14 15 16 17 18 19 20 21 22 23 24 25 26 27 28 29 30 31 32 33 34 35 36 37 38 39 40 41 42
000
FTUS41 KBOX 021736
TAFORH
TAF
KORH 021736Z 0218/0318 22008G15KT P6SM VCTS BKN040CB
     FM022200 23007KT P6SM SCT040
     FM030100 23007KT P6SM SCT250
     FM030300 23008KT P6SM BKN050
     FM030700 26011KT P6SM -SHRA BKN030
     FM031000 28011KT P6SM SCT250=

USA.gov is the U.S. government's official web portal to all federal, state and local government web resources and services.